Year,Month,Day,Hour,Minute,Value (Times are PST for temperature in C)
2012,04,13,08,18,2.30
2012,04,13,08,19,2.40
2012,04,13,08,20,2.60
2012,04,13,08,21,2.80
2012,04,13,08,22,3.00
2012,04,13,08,23,3.10
2012,04,13,08,24,3.30
2012,04,13,08,25,3.50
2012,04,13,08,26,3.70
2012,04,13,08,27,3.90
2012,04,13,08,28,4.00
2012,04,13,08,29,4.20
2012,04,13,08,30,4.30
2012,04,13,08,31,4.50
2012,04,13,08,32,4.60
2012,04,13,08,33,4.70
2012,04,13,08,34,4.70
2012,04,13,08,35,4.80
2012,04,13,08,36,4.80
2012,04,13,08,37,4.90
2012,04,13,08,38,5.00
2012,04,13,08,39,5.10
2012,04,13,08,40,5.10
2012,04,13,08,41,5.10
2012,04,13,08,42,5.10
2012,04,13,08,43,5.20
2012,04,13,08,44,5.20
2012,04,13,08,45,5.30
2012,04,13,08,46,5.30
2012,04,13,08,47,5.40
2012,04,13,08,48,5.50
2012,04,13,08,49,5.50
2012,04,13,08,50,5.60
2012,04,13,08,51,5.60
2012,04,13,08,52,5.70
2012,04,13,08,53,5.70
2012,04,13,08,54,5.80
2012,04,13,08,55,5.90
2012,04,13,08,56,6.00
2012,04,13,08,57,6.00
2012,04,13,08,58,6.10
2012,04,13,08,59,6.20
2012,04,13,09,00,6.30
2012,04,13,09,01,6.40
2012,04,13,09,02,6.40
2012,04,13,09,03,6.50
2012,04,13,09,04,6.60
2012,04,13,09,05,6.60
2012,04,13,09,06,6.70
2012,04,13,09,07,6.80
2012,04,13,09,08,6.90
2012,04,13,09,09,7.00
2012,04,13,09,10,7.10
2012,04,13,09,11,7.20
2012,04,13,09,12,7.30
2012,04,13,09,13,7.40
2012,04,13,09,14,7.50
2012,04,13,09,15,7.50
2012,04,13,09,16,7.60
2012,04,13,09,17,7.70
2012,04,13,09,18,7.70
2012,04,13,09,19,7.80
2012,04,13,09,20,7.80
2012,04,13,09,21,7.90
2012,04,13,09,22,8.00
2012,04,13,09,23,8.00
2012,04,13,09,24,8.00
2012,04,13,09,25,8.10
2012,04,13,09,26,8.10
2012,04,13,09,27,8.10
2012,04,13,09,28,8.20
2012,04,13,09,29,8.20
2012,04,13,09,30,8.20
2012,04,13,09,31,8.30
2012,04,13,09,32,8.30
2012,04,13,09,33,8.30
2012,04,13,09,34,8.40
2012,04,13,09,35,8.50
2012,04,13,09,36,8.60
2012,04,13,09,37,8.60
2012,04,13,09,38,8.70
2012,04,13,09,39,8.70
2012,04,13,09,40,8.70
2012,04,13,09,41,8.70
2012,04,13,09,42,8.70
2012,04,13,09,43,8.70
2012,04,13,09,44,8.70
2012,04,13,09,45,8.70
2012,04,13,09,46,8.60
2012,04,13,09,47,8.60
2012,04,13,09,48,8.60
2012,04,13,09,49,8.60
2012,04,13,09,50,8.60
2012,04,13,09,51,8.50
2012,04,13,09,52,8.60
2012,04,13,09,53,8.60
2012,04,13,09,54,8.60
2012,04,13,09,55,8.60
2012,04,13,09,56,8.70
2012,04,13,09,57,8.70
2012,04,13,09,58,8.70
2012,04,13,09,59,8.60
2012,04,13,10,00,8.60
2012,04,13,10,01,8.60
2012,04,13,10,02,8.60
2012,04,13,10,03,8.60
2012,04,13,10,04,8.60
2012,04,13,10,05,8.60
2012,04,13,10,06,8.70
2012,04,13,10,07,8.70
2012,04,13,10,08,8.70
2012,04,13,10,09,8.70
2012,04,13,10,10,8.70
2012,04,13,10,11,8.70
2012,04,13,10,12,8.70
2012,04,13,10,13,8.60
2012,04,13,10,14,8.60
2012,04,13,10,15,8.50
2012,04,13,10,16,8.50
2012,04,13,10,17,8.50
2012,04,13,10,18,8.50
2012,04,13,10,19,8.40
2012,04,13,10,20,8.40
2012,04,13,10,21,8.40
2012,04,13,10,22,8.50
2012,04,13,10,23,8.50
2012,04,13,10,24,8.60
2012,04,13,10,25,8.60
2012,04,13,10,26,8.70
2012,04,13,10,27,8.70
2012,04,13,10,28,8.70
2012,04,13,10,29,8.80
2012,04,13,10,30,8.80
2012,04,13,10,31,8.80
2012,04,13,10,32,8.90
2012,04,13,10,33,9.00
2012,04,13,10,34,9.00
2012,04,13,10,35,9.10
2012,04,13,10,36,9.10
2012,04,13,10,37,9.10
2012,04,13,10,38,9.10
2012,04,13,10,39,9.20
2012,04,13,10,40,9.20
2012,04,13,10,41,9.20
2012,04,13,10,42,9.10
2012,04,13,10,43,9.10
2012,04,13,10,44,9.10
2012,04,13,10,45,9.10
2012,04,13,10,46,9.10
2012,04,13,10,47,9.10
2012,04,13,10,48,9.10
2012,04,13,10,49,9.10
2012,04,13,10,50,9.20
2012,04,13,10,51,9.20
2012,04,13,10,52,9.20
2012,04,13,10,53,9.30
2012,04,13,10,54,9.30
2012,04,13,10,55,9.40
2012,04,13,10,56,9.40
2012,04,13,10,57,9.50
2012,04,13,10,58,9.60
2012,04,13,10,59,9.60
2012,04,13,11,00,9.60
2012,04,13,11,01,9.70
2012,04,13,11,02,9.70
2012,04,13,11,03,9.70
2012,04,13,11,04,9.70
2012,04,13,11,05,9.80
2012,04,13,11,06,9.80
2012,04,13,11,07,9.90
2012,04,13,11,08,9.90
2012,04,13,11,09,9.80
2012,04,13,11,10,9.80
2012,04,13,11,11,9.80
2012,04,13,11,12,9.90
2012,04,13,11,13,10.00
2012,04,13,11,14,10.00
2012,04,13,11,15,10.10
2012,04,13,11,16,10.10
2012,04,13,11,17,10.10
2012,04,13,11,18,10.20
2012,04,13,11,19,10.20
2012,04,13,11,20,10.30
2012,04,13,11,21,10.30
2012,04,13,11,22,10.30
2012,04,13,11,23,10.30
2012,04,13,11,24,10.30
2012,04,13,11,25,10.30
2012,04,13,11,26,10.30
2012,04,13,11,27,10.30
2012,04,13,11,28,10.30
2012,04,13,11,29,10.30
2012,04,13,11,30,10.30
2012,04,13,11,31,10.30
2012,04,13,11,32,10.30
2012,04,13,11,33,10.20
2012,04,13,11,34,10.20
2012,04,13,11,35,10.20
2012,04,13,11,36,10.20
2012,04,13,11,37,10.30
2012,04,13,11,38,10.30
2012,04,13,11,39,10.40
2012,04,13,11,40,10.40
2012,04,13,11,41,10.50
2012,04,13,11,42,10.60
2012,04,13,11,43,10.70
2012,04,13,11,44,10.70
2012,04,13,11,45,10.70
2012,04,13,11,46,10.70
2012,04,13,11,47,10.70
2012,04,13,11,48,10.70
2012,04,13,11,49,10.70
2012,04,13,11,50,10.70
2012,04,13,11,51,10.80
2012,04,13,11,52,10.80
2012,04,13,11,53,10.80
2012,04,13,11,54,10.80
2012,04,13,11,55,10.70
2012,04,13,11,56,10.70
2012,04,13,11,57,10.60
2012,04,13,11,58,10.60
2012,04,13,11,59,10.60
2012,04,13,12,00,10.60
2012,04,13,12,01,10.60
2012,04,13,12,02,10.60
2012,04,13,12,03,10.50
2012,04,13,12,04,10.40
2012,04,13,12,05,10.40
2012,04,13,12,06,10.30
2012,04,13,12,07,10.30
2012,04,13,12,08,10.40
2012,04,13,12,09,10.40
2012,04,13,12,10,10.40
2012,04,13,12,11,10.40
2012,04,13,12,12,10.40
2012,04,13,12,13,10.40
2012,04,13,12,14,10.40
2012,04,13,12,15,10.40
2012,04,13,12,16,10.50
2012,04,13,12,17,10.50
2012,04,13,12,18,10.50
2012,04,13,12,19,10.50
2012,04,13,12,20,10.60
2012,04,13,12,21,10.60
2012,04,13,12,22,10.70
2012,04,13,12,23,10.70
2012,04,13,12,24,10.80
2012,04,13,12,25,10.90
2012,04,13,12,26,10.90
2012,04,13,12,27,10.90
2012,04,13,12,28,10.90
2012,04,13,12,29,10.90
2012,04,13,12,30,10.90
2012,04,13,12,31,10.80
2012,04,13,12,32,10.80
2012,04,13,12,33,10.80
2012,04,13,12,34,10.80
2012,04,13,12,35,10.80
2012,04,13,12,36,10.70
2012,04,13,12,37,10.70
2012,04,13,12,38,10.70
2012,04,13,12,39,10.70
2012,04,13,12,40,10.70
2012,04,13,12,41,10.70
2012,04,13,12,42,10.80
2012,04,13,12,43,10.80
2012,04,13,12,44,10.80
2012,04,13,12,45,10.80
2012,04,13,12,46,10.80
2012,04,13,12,47,10.80
2012,04,13,12,48,10.90
2012,04,13,12,49,10.90
2012,04,13,12,50,10.90
2012,04,13,12,51,10.90
2012,04,13,12,52,11.00
2012,04,13,12,53,11.10
2012,04,13,12,54,11.10
2012,04,13,12,55,11.10
2012,04,13,12,56,11.00
2012,04,13,12,57,11.00
2012,04,13,12,58,11.00
2012,04,13,12,59,11.10
2012,04,13,13,00,11.10
2012,04,13,13,01,11.10
2012,04,13,13,02,11.10
2012,04,13,13,03,11.20
2012,04,13,13,04,11.20
2012,04,13,13,05,11.20
2012,04,13,13,06,11.20
2012,04,13,13,07,11.20
2012,04,13,13,08,11.20
2012,04,13,13,09,11.20
2012,04,13,13,10,11.30
2012,04,13,13,11,11.30
2012,04,13,13,12,11.40
2012,04,13,13,13,11.40
2012,04,13,13,14,11.30
2012,04,13,13,15,11.20
2012,04,13,13,16,11.20
2012,04,13,13,17,11.20
2012,04,13,13,18,11.10
2012,04,13,13,19,11.10
2012,04,13,13,20,11.10
2012,04,13,13,21,11.20
2012,04,13,13,22,11.20
2012,04,13,13,23,11.20
2012,04,13,13,24,11.30
2012,04,13,13,25,11.30
2012,04,13,13,26,11.40
2012,04,13,13,27,11.50
2012,04,13,13,28,11.60
2012,04,13,13,29,11.70
2012,04,13,13,30,11.80
2012,04,13,13,31,11.90
2012,04,13,13,32,12.00
2012,04,13,13,33,12.10
2012,04,13,13,34,12.10
2012,04,13,13,35,12.00
2012,04,13,13,36,11.90
2012,04,13,13,37,11.80
2012,04,13,13,38,11.80
2012,04,13,13,39,11.80
2012,04,13,13,40,11.80
2012,04,13,13,41,11.70
2012,04,13,13,42,11.70
2012,04,13,13,43,11.60
2012,04,13,13,44,11.50
2012,04,13,13,45,11.40
2012,04,13,13,46,11.30
2012,04,13,13,47,11.30
2012,04,13,13,48,11.20
2012,04,13,13,49,11.10
2012,04,13,13,50,11.10
2012,04,13,13,51,11.00
2012,04,13,13,52,11.00
2012,04,13,13,53,11.00
2012,04,13,13,54,11.00
2012,04,13,13,55,11.00
2012,04,13,13,56,11.10
2012,04,13,13,57,11.10
2012,04,13,13,58,11.10
2012,04,13,13,59,11.10
2012,04,13,14,00,11.10
2012,04,13,14,01,11.10
2012,04,13,14,02,11.10
2012,04,13,14,03,11.20
2012,04,13,14,04,11.20
2012,04,13,14,05,11.30
2012,04,13,14,06,11.30
2012,04,13,14,07,11.40
2012,04,13,14,08,11.40
2012,04,13,14,09,11.60
2012,04,13,14,10,11.70
2012,04,13,14,11,11.80
2012,04,13,14,12,11.90
2012,04,13,14,13,12.00
2012,04,13,14,14,12.20
2012,04,13,14,15,12.10
2012,04,13,14,16,12.00
2012,04,13,14,17,12.00
2012,04,13,14,18,12.00
2012,04,13,14,19,12.10
2012,04,13,14,20,12.20
2012,04,13,14,21,12.20
2012,04,13,14,22,12.10
2012,04,13,14,23,12.10
2012,04,13,14,24,12.00
2012,04,13,14,25,11.90
2012,04,13,14,26,11.90
2012,04,13,14,27,11.90
2012,04,13,14,28,11.90
2012,04,13,14,29,11.90
2012,04,13,14,30,11.90
2012,04,13,14,31,12.00
2012,04,13,14,32,11.90
2012,04,13,14,33,11.90
2012,04,13,14,34,11.80
2012,04,13,14,35,11.90
2012,04,13,14,36,11.90
2012,04,13,14,37,11.90
2012,04,13,14,38,11.90
2012,04,13,14,39,12.00
2012,04,13,14,40,12.00
2012,04,13,14,41,11.90
2012,04,13,14,42,11.90
2012,04,13,14,43,12.00
2012,04,13,14,44,12.10
2012,04,13,14,45,12.10
2012,04,13,14,46,12.20
2012,04,13,14,47,12.10
2012,04,13,14,48,12.10
2012,04,13,14,49,12.10
2012,04,13,14,50,12.00
2012,04,13,14,51,12.00
2012,04,13,14,52,11.90
2012,04,13,14,53,11.80
2012,04,13,14,54,11.70
2012,04,13,14,55,11.70
2012,04,13,14,56,11.60
2012,04,13,14,57,11.60
2012,04,13,14,58,11.50
2012,04,13,14,59,11.40
2012,04,13,15,00,11.40
2012,04,13,15,01,11.40
2012,04,13,15,02,11.40
2012,04,13,15,03,11.40
2012,04,13,15,04,11.40
2012,04,13,15,05,11.40
2012,04,13,15,06,11.30
2012,04,13,15,07,11.30
2012,04,13,15,08,11.30
2012,04,13,15,09,11.30
2012,04,13,15,10,11.40
2012,04,13,15,11,11.40
2012,04,13,15,12,11.50
2012,04,13,15,13,11.60
2012,04,13,15,14,11.60
2012,04,13,15,15,11.70
2012,04,13,15,16,11.70
2012,04,13,15,17,11.70
2012,04,13,15,18,11.80
2012,04,13,15,19,11.80
2012,04,13,15,20,11.90
2012,04,13,15,21,11.90
2012,04,13,15,22,12.00
2012,04,13,15,23,12.10
2012,04,13,15,24,12.10
2012,04,13,15,25,12.20
2012,04,13,15,26,12.20
2012,04,13,15,27,12.20
2012,04,13,15,28,12.30
2012,04,13,15,29,12.40
2012,04,13,15,30,12.50
2012,04,13,15,31,12.70
2012,04,13,15,32,12.70
2012,04,13,15,33,12.80
2012,04,13,15,34,12.80
2012,04,13,15,35,12.90
2012,04,13,15,36,12.90
2012,04,13,15,37,13.00
2012,04,13,15,38,13.00
2012,04,13,15,39,13.10
2012,04,13,15,40,13.20
2012,04,13,15,41,13.20
2012,04,13,15,42,13.20
2012,04,13,15,43,13.20
2012,04,13,15,44,13.20
2012,04,13,15,45,13.20
2012,04,13,15,46,13.10
2012,04,13,15,47,13.00
2012,04,13,15,48,12.90
2012,04,13,15,49,12.90
2012,04,13,15,50,12.80
2012,04,13,15,51,12.80
2012,04,13,15,52,12.70
2012,04,13,15,53,12.60
2012,04,13,15,54,12.50
2012,04,13,15,55,12.40
2012,04,13,15,56,12.30
2012,04,13,15,57,12.30
2012,04,13,15,58,12.20
2012,04,13,15,59,12.20
2012,04,13,16,00,12.20
2012,04,13,16,01,12.10
2012,04,13,16,02,12.10
2012,04,13,16,03,12.10
2012,04,13,16,04,12.10
2012,04,13,16,05,12.10
2012,04,13,16,06,12.10
2012,04,13,16,07,12.10
2012,04,13,16,08,12.20
2012,04,13,16,09,12.20
2012,04,13,16,10,12.20
2012,04,13,16,11,12.20
2012,04,13,16,12,12.10
2012,04,13,16,13,12.10
2012,04,13,16,14,12.10
2012,04,13,16,15,12.20
2012,04,13,16,16,12.20
2012,04,13,16,17,12.20
2012,04,13,16,18,12.30
2012,04,13,16,19,12.30
2012,04,13,16,20,12.30
2012,04,13,16,21,12.30
2012,04,13,16,22,12.30
2012,04,13,16,23,12.30
2012,04,13,16,24,12.30
2012,04,13,16,25,12.20
2012,04,13,16,26,12.20
2012,04,13,16,27,12.20
2012,04,13,16,28,12.20
2012,04,13,16,29,12.20
2012,04,13,16,30,12.20
2012,04,13,16,31,12.20
2012,04,13,16,32,12.20
2012,04,13,16,33,12.30
2012,04,13,16,34,12.30
2012,04,13,16,35,12.30
2012,04,13,16,36,12.30
2012,04,13,16,37,12.30
2012,04,13,16,38,12.30
2012,04,13,16,39,12.30
2012,04,13,16,40,12.30
2012,04,13,16,41,12.30
2012,04,13,16,42,12.30
2012,04,13,16,43,12.30
2012,04,13,16,44,12.30
2012,04,13,16,45,12.30
2012,04,13,16,46,12.30
2012,04,13,16,47,12.30
2012,04,13,16,48,12.30
2012,04,13,16,49,12.30
2012,04,13,16,50,12.30
